Content
SEND FEEDBACK

Daily
Averages
Monthly
Summary
United States of America

CHAUTAUQUA, NEW YORK


Home > North America > United States > New York
Elevation: 1264 feet     Latitude: 42 17N     Longitude: 079 37W

WEATHER
 
SELECT A DAY
Number of Records: 202,581;   Date Range: 12/11/96 - 7/7/14
 
SHARE

PRINT THIS DATA

[ ← Previous Day ]
WEATHER ALMANAC - FEBRUARY 8, 2014
[ Next Day → ]
[ °C ]   °F
Weather ElementAverageHighLow
Temperature9.2 °F14 °F (1:53 pm)3 °F (5:53 am)
Dewpoint2.3 °F8.1 °F (11:16 pm)-5.1 °F (1:53 am)
Humidity73.8 %87 % (7:53 pm)60 % (1:53 am)
Barometer30.30 in30.37 in (2:53 am)30.20 in (11:16 pm)
Wind Speed7.5 mph11.5 mph (2:53 am)
Wind Gust21.9 mph (9:53 am)
Weather ElementAverage
Visibility8.9 mi
Wind DirectionSSW (213.1 °)

Weather ElementTotal
Precipitation---
Heating Degree Days56.5 (Base 65)
Averaged from 29 records on February 8, 2014
WEATHER CONDITIONS BREAKOUT
WIND DIRECTION BREAKOUT
WEATHER BY HOUR - FEBRUARY 8, 2014
[ °C ]   °F
Local TimeTemperatureDewpointHumidityBarometerVisibilityWind DirectionWind SpeedGust SpeedPrecipitationEventsConditions
1:53 AM6.1 °F-5.1 °F60 %30.36 in10.0 miSW (220°)9.2 mphClear
2:53 AM6.1 °F-2.9 °F67 %30.37 in10.0 miSW (230°)11.5 mphClear
3:53 AM6.1 °F-2.0 °F69 %30.36 in10.0 miSW (220°)11.5 mphClear
4:53 AM3.9 °F-2.9 °F73 %30.36 in10.0 miSSW (210°)10.4 mphClear
5:53 AM3.0 °F-4.0 °F73 %30.36 in10.0 miSSW (210°)9.2 mphClear
6:53 AM3.9 °F-4.0 °F70 %30.36 in10.0 miSouth (190°)9.2 mphClear
7:53 AM5.0 °F-2.9 °F70 %30.36 in10.0 miSSW (200°)9.2 mphClear
8:53 AM6.1 °F-2.9 °F67 %30.37 in10.0 miSSW (210°)9.2 mphClear
9:53 AM9.0 °F0.0 °F67 %30.37 in10.0 miSSW (210°)11.5 mph21.9 mphClear
10:48 AM12.2 °F1.4 °F62 %30.31 in10.0 miSW (220°)6.9 mphMostly Cloudy
10:53 AM12.0 °F3.0 °F67 %30.36 in10.0 miSW (230°)10.4 mphMostly Cloudy
11:03 AM12.0 °F1.9 °F64 %30.30 in10.0 miSW (220°)10.4 mphMostly Cloudy
11:53 AM12.9 °F3.0 °F65 %30.34 in10.0 miWSW (240°)9.2 mphOvercast
12:53 PM12.9 °F5.0 °F71 %30.30 in10.0 miWSW (250°)10.4 mphMostly Cloudy
1:53 PM14.0 °F5.0 °F67 %30.28 in10.0 miWest (260°)6.9 mphMostly Cloudy
2:53 PM14.0 °F6.1 °F71 %30.27 in10.0 miWSW (250°)6.9 mphOvercast
3:53 PM14.0 °F6.1 °F71 %30.27 in10.0 miWest (280°)9.2 mphOvercast
4:53 PM14.0 °F7.0 °F74 %30.28 in10.0 miWSW (250°)8.1 mphOvercast
5:53 PM12.9 °F6.1 °F74 %30.27 in10.0 miSSW (210°)4.6 mphOvercast
6:53 PM7.0 °F3.0 °F84 %30.27 in10.0 miSSE (160°)3.5 mphScattered Clouds
7:53 PM3.0 °F0.0 °F87 %30.26 in9.0 miSouth (170°)4.6 mphClear
8:53 PM3.0 °F-0.9 °F84 %30.26 in10.0 miSouth (190°)3.5 mphMostly Cloudy
9:53 PM6.1 °F1.9 °F83 %30.26 in10.0 miSouth (180°)4.6 mphOvercast
10:50 PM10.4 °F5.0 °F79 %30.21 in2.0 miSouth (190°)3.5 mph0.00 inSnowLight Snow
10:53 PM10.0 °F6.1 °F84 %30.25 in1.5 miSouth (190°)3.5 mph0.00 inSnowLight Snow
11:16 PM12.0 °F8.1 °F84 %30.20 in2.5 miSouth (180°)5.8 mph0.00 inSnowLight Snow
11:27 PM12.0 °F8.1 °F84 %30.20 in4.0 miSouth (190°)4.6 mph0.00 inSnowLight Snow
11:36 PM12.0 °F8.1 °F84 %30.20 in8.0 miSSW (210°)4.6 mph0.00 inOvercast
11:53 PM12.0 °F8.1 °F84 %30.24 in10.0 miSSW (210°)4.6 mph0.00 inOvercast
Hourly data recorded from KDKK, located miles away from Chautauqua, New York







STORIES FROM OUR PARTNERS